Home   Weather   Trujillo   Past weeks

Flag for Peru Past Weather in Trujillo, La Libertad, Peru — Yesterday and Last 2 Weeks

Now
68 °F

Sunny.


Feels Like: 68 °F
Forecast: 60 / 70 °F
Wind: 13 mph from South

Location: Trujillo Airport

Current Time: Jul 28, 2017 at 2:06:01 pm

Latest Report: Jul 28, 2017 at 1:00 pm


Visibility: 10 mi

Pressure: 29.89 "Hg

Humidity: 73%

Dew Point: 59 °F

Location of TrujilloLocation

Past Weather in Trujillo — Graph

°F

Trujillo Temperature Yesterday

Maximum temperature yesterday: 70 °F (at 3:00 pm)
Minimum temperature yesterday: 64 °F (at 12:00 am)
Average temperature yesterday: 66 °F

High & Low Weather Summary for the Past Weeks

 TemperatureHumidityPressure
High70 °F (Jul 14, 12:00 pm)100% (Jul 16, 2:00 am)30.09 "Hg (Jul 16, 2:00 am)
Low61 °F (Jul 17, 5:00 am)64% (Jul 14, 12:00 pm)29.86 "Hg (Jul 17, 4:00 pm)
Average65 °F86%29.96 "Hg
* Reported Jul 13 1:00 pm — Jul 28 1:00 pm, Trujillo. Weather by CustomWeather, © 2017

Note: Actual official high and low records may vary slightly from our data, if they occured in-between our weather recording intervals... More about our weather records

Advertising

Trujillo Weather History for the Previous 24 Hours

Scroll right to see more
 ConditionsComfort  
Time TempWeatherWind HumidityBarometerVisibility
1:00 pm
Fri, Jul 28
68 °FSunny.13 mph73%29.89 "Hg10 mi
12:00 pm66 °FScattered clouds.10 mph83%29.92 "Hg5 mi
11:00 am66 °FPartly sunny.10 mph78%29.92 "Hg4 mi
10:00 am64 °FPartly sunny.7 mph88%29.92 "Hg4 mi
9:00 am64 °FFog.5 mph88%29.95 "Hg3 mi
8:00 am63 °FFog.3 mph94%29.92 "Hg3 mi
7:00 am61 °FOvercast.No wind94%29.92 "Hg4 mi
6:40 am61 °FPartly sunny.No wind94%29.92 "Hg4 mi
6:00 am61 °FFog.3 mph94%29.89 "Hg3 mi
5:00 am61 °FFog.5 mph94%29.89 "Hg2 mi
4:00 am63 °FFog.5 mph88%29.89 "Hg2 mi
3:00 am63 °FFog.5 mph88%29.89 "Hg2 mi
2:00 am63 °FFog.8 mph88%29.92 "Hg3 mi
1:00 am64 °FFog.8 mph83%29.95 "Hg3 mi
12:00 am64 °FFog.8 mph83%29.95 "Hg3 mi
11:00 pm
Thu, Jul 27
64 °FFog.6 mph88%29.95 "Hg2 mi
10:00 pm64 °FFog.7 mph83%29.95 "Hg3 mi
9:00 pm64 °FPassing clouds.9 mph83%29.95 "Hg4 mi
8:00 pm64 °FOvercast.10 mph88%29.92 "Hg4 mi
7:00 pm64 °FOvercast.9 mph88%29.89 "Hg4 mi
6:00 pm64 °FScattered clouds.9 mph88%29.89 "Hg4 mi
5:00 pm66 °FPartly sunny.10 mph83%29.86 "Hg6 mi
4:00 pm68 °FPartly sunny.12 mph78%29.86 "HgN/A
3:00 pm70 °FPassing clouds.12 mph73%29.86 "Hg5 mi
2:00 pm68 °FClear.13 mph78%29.86 "Hg5 mi
Weather by CustomWeather, © 2017

See weather overviewHow to use our weather pages